GEESAT 5-09

导读 | 豆包AI

GEESAT 5-09是中国于2025年9月8日发射的商业卫星,隶属于GEESAT系列,由国内企业Geespace主导研发部署。卫星设计工作寿命约五年,进入预定轨道后,将为全球提供高精度商用PPP-RTK定位服务,助力自动驾驶、测绘、物联网等领域发展。任务末期卫星会主动离轨再入大气层销毁,不会产生残留空间垃圾,兼顾服务能力与太空环境可持续发展。目前该卫星已在轨稳定运行超过半年,整体表现达到设计预期。

Basic Information
目录编号:
65558
目录名称:
GEESAT 5-09
国际标识:
2025-201J
轨道中心:
EARTH
卫星名称:
GEESAT 5-09
卫星全名:
GEESAT 5-09
卫星状态:
在轨 (已飞行187 天)
发射日期:
2025-09-08 UTC
国别 :
中国 (CN)
星等 :
--
Orbit Information
数据来源 国际轨道数据 AOE轨道数据
星历时间 2026-03-13T22:26:12+0800
12小时前
查看轨道信息
2026-03-14T03:00:00+0800
7小时前
查看轨道信息
半长轴 6995.563km 6995.594km
偏心率 0.0009137 0.0008816
轨道倾角 49.979° 49.980°
近地点辐角 260.353° 261.322°
升交点赤经 122.232° 121.352°
平近点角 99.638° 34.979°
近地点 611.034km 611.289km
远地点 623.818km 623.625km
周期 97.050分钟 97.050分钟
每日圈数 14.837776 14.837676
Detailed Information
使用方式:
暂无
2D Orbit Map
3D Orbit Map
Orbit Altitude Analysis Chart
Orbit Inclination Analysis Chart
Orbit Comprehensive Analysis Chart
View Comprehensive Chart